Weather reports worldwide

Advertisment
Treviso/S. Angelo, Italy (16099): temperature & dewpoint: 15.05.2019 05:00:00 - 21.05.2019 05:00:00 (CEST)Treviso/S. Angelo, Italy (16099): wind speed: 15.05.2019 05:00:00 - 21.05.2019 05:00:00 (CEST)Treviso/S. Angelo, Italy (16099): wind direction: 15.05.2019 05:00:00 - 21.05.2019 05:00:00 (CEST)Treviso/S. Angelo, Italy (16099): reduced air pressure: 15.05.2019 05:00:00 - 21.05.2019 05:00:00 (CEST)Treviso/S. Angelo, Italy (16099): visibility: 15.05.2019 05:00:00 - 21.05.2019 05:00:00 (CEST)Treviso/S. Angelo, Italy (16099): precipitation: 15.05.2019 05:00:00 - 21.05.2019 05:00:00 (CEST)
Date & Time tt [°C] td [°C] ff [km/h] ff [kn] dd ppp [hPa] vv [km] rr [mm]
21.05.2019 05:00:00 13,5 13,1 2 1 N 1006,7 - 0,0
21.05.2019 04:00:00 - - - - - - - -
21.05.2019 03:00:00 - - - - - - - -
21.05.2019 02:00:00 13,9 13,4 8 4 SSW 1006,9 - -
21.05.2019 01:00:00 - - - - - - - -
21.05.2019 00:00:00 - - - - - - - -
20.05.2019 23:00:00 14,9 12,8 5 3 S 1006,8 - 0,0
20.05.2019 22:00:00 - - - - - - - -
20.05.2019 21:00:00 - - - - - - - -
20.05.2019 20:00:00 16,0 12,7 11 6 S 1006,1 25 -
20.05.2019 19:00:00 - - - - - - - -
20.05.2019 18:00:00 - - - - - - - -
20.05.2019 17:00:00 17,6 12,9 15 8 SSW 1005,5 - 0,0
20.05.2019 16:00:00 - - - - - - - -
20.05.2019 15:00:00 - - - - - - - -
20.05.2019 14:00:00 17,8 13,2 22 12 SW 1005,2 15 -
20.05.2019 13:00:00 - - - - - - - -
20.05.2019 12:00:00 - - - - - - - -
20.05.2019 11:00:00 15,8 13,5 13 7 SW 1004,6 10 0,0
20.05.2019 10:00:00 - - - - - - - -
20.05.2019 09:00:00 - - - - - - - -
20.05.2019 08:00:00 14,2 13,6 2 1 WSW 1003,8 7 -
20.05.2019 07:00:00 - - - - - - - -
20.05.2019 06:00:00 - - - - - - - -
20.05.2019 05:00:00 13,5 13,5 2 1 WSW 1003,5 - 0,0
20.05.2019 04:00:00 - - - - - - - -
20.05.2019 03:00:00 - - - - - - - -
20.05.2019 02:00:00 13,8 13,5 0 0 N 1004,5 - -
20.05.2019 01:00:00 - - - - - - - -
20.05.2019 00:00:00 - - - - - - - -
19.05.2019 23:00:00 14,2 13,8 4 2 N 1005,0 10 0,0
19.05.2019 22:00:00 - - - - - - - -
19.05.2019 21:00:00 - - - - - - - -
19.05.2019 20:00:00 15,3 14,1 11 6 ENE 1004,6 10 -
19.05.2019 19:00:00 - - - - - - - -
19.05.2019 18:00:00 - - - - - - - -
19.05.2019 17:00:00 16,4 13,7 11 6 NNE 1004,7 10 0,0
19.05.2019 16:00:00 - - - - - - - -
19.05.2019 15:00:00 - - - - - - - -
19.05.2019 14:00:00 15,3 14,0 13 7 ENE 1005,1 11 -
19.05.2019 13:00:00 - - - - - - - -
19.05.2019 12:00:00 - - - - - - - -
19.05.2019 11:00:00 15,3 13,7 13 7 NE 1005,1 20 0,0
19.05.2019 10:00:00 - - - - - - - -
19.05.2019 09:00:00 - - - - - - - -
19.05.2019 08:00:00 13,6 13,1 13 7 NE 1005,1 - -
19.05.2019 07:00:00 - - - - - - - -
19.05.2019 06:00:00 - - - - - - - -
19.05.2019 05:00:00 13,4 13,0 9 5 NNE 1005,6 - 0,0
19.05.2019 04:00:00 - - - - - - - -
19.05.2019 03:00:00 - - - - - - - -
19.05.2019 02:00:00 13,5 12,9 13 7 NE 1006,5 - -
19.05.2019 01:00:00 - - - - - - - -
19.05.2019 00:00:00 - - - - - - - -
18.05.2019 23:00:00 13,1 12,8 9 5 NNE 1007,5 4,0 0,0
18.05.2019 22:00:00 - - - - - - - -
18.05.2019 21:00:00 - - - - - - - -
18.05.2019 20:00:00 13,2 12,9 15 8 NNE 1007,0 2,0 -
18.05.2019 19:00:00 - - - - - - - -
18.05.2019 18:00:00 - - - - - - - -
18.05.2019 17:00:00 14,7 12,8 9 5 N 1007,0 10 0,0
18.05.2019 16:00:00 - - - - - - - -
18.05.2019 15:00:00 - - - - - - - -
18.05.2019 14:00:00 14,9 12,3 4 2 N 1007,7 20 -
18.05.2019 13:00:00 - - - - - - - -
18.05.2019 12:00:00 - - - - - - - -
18.05.2019 11:00:00 14,4 11,7 11 6 NNE 1008,0 25 0,0
18.05.2019 10:00:00 - - - - - - - -
18.05.2019 09:00:00 - - - - - - - -
18.05.2019 08:00:00 13,5 11,5 5 3 E 1008,1 - -
18.05.2019 07:00:00 - - - - - - - -
18.05.2019 06:00:00 - - - - - - - -
18.05.2019 05:00:00 12,9 11,1 4 2 N 1008,2 - 0,0
18.05.2019 04:00:00 - - - - - - - -
18.05.2019 03:00:00 - - - - - - - -
18.05.2019 02:00:00 13,6 10,1 4 2 N 1009,1 - -
18.05.2019 01:00:00 - - - - - - - -
18.05.2019 00:00:00 - - - - - - - -
17.05.2019 23:00:00 13,6 9,4 4 2 N 1010,0 30 0,0
17.05.2019 22:00:00 - - - - - - - -
17.05.2019 21:00:00 - - - - - - - -
17.05.2019 20:00:00 16,3 7,4 11 6 SE 1009,1 30 -
17.05.2019 19:00:00 - - - - - - - -
17.05.2019 18:00:00 - - - - - - - -
17.05.2019 17:00:00 19,0 9,9 9 5 SE 1009,6 30 0,0
17.05.2019 16:00:00 - - - - - - - -
17.05.2019 15:00:00 - - - - - - - -
17.05.2019 14:00:00 18,8 10,7 13 7 SE 1010,3 10 -
17.05.2019 13:00:00 - - - - - - - -
17.05.2019 12:00:00 - - - - - - - -
17.05.2019 11:00:00 17,4 8,5 9 5 ENE 1010,8 20 0,0
17.05.2019 10:00:00 - - - - - - - -
17.05.2019 09:00:00 - - - - - - - -
17.05.2019 08:00:00 13,1 8,3 8 4 ENE 1011,4 10 -
17.05.2019 07:00:00 - - - - - - - -
17.05.2019 06:00:00 - - - - - - - -
17.05.2019 05:00:00 11,6 9,3 8 4 ENE 1010,5 - 0,0
17.05.2019 04:00:00 - - - - - - - -
17.05.2019 03:00:00 - - - - - - - -
17.05.2019 02:00:00 12,1 9,3 2 1 N 1011,3 - -
17.05.2019 01:00:00 - - - - - - - -
17.05.2019 00:00:00 - - - - - - - -
16.05.2019 23:00:00 14,5 9,8 2 1 SSW 1011,7 10 0,0
16.05.2019 22:00:00 - - - - - - - -
16.05.2019 21:00:00 - - - - - - - -
16.05.2019 20:00:00 16,6 7,6 8 4 S 1010,8 20 -
16.05.2019 19:00:00 - - - - - - - -
16.05.2019 18:00:00 - - - - - - - -
16.05.2019 17:00:00 19,0 9,3 9 5 SE 1010,6 25 0,0
16.05.2019 16:00:00 - - - - - - - -
16.05.2019 15:00:00 - - - - - - - -
16.05.2019 14:00:00 18,1 8,5 5 3 E 1012,2 30 -
16.05.2019 13:00:00 - - - - - - - -
16.05.2019 12:00:00 - - - - - - - -
16.05.2019 11:00:00 15,3 8,4 4 2 N 1013,3 20 0,0
16.05.2019 10:00:00 - - - - - - - -
16.05.2019 09:00:00 - - - - - - - -
16.05.2019 08:00:00 12,6 8,3 5 3 NE 1013,6 20 -
16.05.2019 07:00:00 - - - - - - - -
16.05.2019 06:00:00 - - - - - - - -
16.05.2019 05:00:00 8,8 8,2 2 1 N 1013,4 - 0,0
16.05.2019 04:00:00 - - - - - - - -
16.05.2019 03:00:00 - - - - - - - -
16.05.2019 02:00:00 10,8 9,6 0 0 N 1014,5 - -
16.05.2019 01:00:00 - - - - - - - -
16.05.2019 00:00:00 - - - - - - - -
15.05.2019 23:00:00 10,7 8,8 0 0 N 1014,8 25 0,0
15.05.2019 22:00:00 - - - - - - - -
15.05.2019 21:00:00 - - - - - - - -
15.05.2019 20:00:00 14,8 8,4 2 1 N 1014,1 30 -
15.05.2019 19:00:00 - - - - - - - -
15.05.2019 18:00:00 - - - - - - - -
15.05.2019 17:00:00 15,4 6,6 2 1 N 1013,7 30 0,0
15.05.2019 16:00:00 - - - - - - - -
15.05.2019 15:00:00 - - - - - - - -
15.05.2019 14:00:00 12,1 6,4 13 7 W 1014,8 - -
15.05.2019 13:00:00 - - - - - - - -
15.05.2019 12:00:00 - - - - - - - -
15.05.2019 11:00:00 10,8 5,8 8 4 NW 1015,2 20 0,0
15.05.2019 10:00:00 - - - - - - - -
15.05.2019 09:00:00 - - - - - - - -
15.05.2019 08:00:00 8,9 5,7 9 5 SSW 1014,5 25 -
15.05.2019 07:00:00 - - - - - - - -
15.05.2019 06:00:00 - - - - - - - -
15.05.2019 05:00:00 9,6 6,7 4 2 N 1015,1 - 0,0

tt = temperature
td = dewpoint
ff = wind speed
dd = wind direction
ppp = reduced air pressure
vv = visibility
rr = precipitation

Next stations